Showing default

OPS 9326 (IDSCS 13), 2653

Orbit data source: Space-Track

OPS 9326 (IDSCS 13), 2653 is a payload satellite owned by USAF SSD (US) in GEO that was launched on Wed, 18 Jan 1967 UTC via a TITAN IIIC launch vehicle from the Air Force Eastern Test Range (AFETR). Payload-class satellites include a variety of spacecraft equipped with specific instruments for various scientific and technological missions. These include communications satellites like Starlink; space stations such as the ISS; scientific satellites like the Hubble; Earth observation satellites from companies like Planet Labs, Umbra, and HawkEye 360; GPS; miniature CubeSats for education and research; and military/defense satellites.

Not visible in the next 10 days
Identifier
2653, 1967-003F
Orbit
GEO
Last TLE update
1 day ago
Origin
Manufacturer
Philco-Ford WDL
Mission
Non-operational Defense Communications
Bus & Motor
IDCSP, Unknown motor
Mass
45 kg wet, 45 kg dry
Launch date (UTC)
1967-01-18 (58 years ago)
Launch vehicle
TITAN IIIC
Launch site
Air Force Eastern Test Range (AFETR)
Object type
Payload
Rocket body
Debris
Shape & HBR
Ico Poly, 0.9 m
Radar Cross Section
0.926 m², Medium (>0.1 m² and < 1m²)

Expand to show TLE details & history

TLE from 1 day ago
0 OPS 9326 (IDSCS 13)
1 02653U 67003F   25183.23794165 -.00000104  00000-0  00000-0 0  9994
2 02653   7.5142  49.4141 0047015  54.5506 305.8572  1.07749708128927
Epoch: 2025-07-02T05:42Z
TLE epoch observation values (Epoch: 2025-07-02T05:42:38.158Z)
Latitude
-0.00001°
Longitude
43.20978°
Altitude
33,701.298 km
Speed
3.158 km/s
True Right ascension
03h 17m 33s
True Declination
0° 00' 00"
Sunlit
Object was in daylight at epoch
Visualization orbit readout
Latitude
4.46811°
Longitude
79.39092°
Altitude
33,631.051 km
Speed
3.164 km/s
Apparent Right ascension
05h 44m 05s
Apparent Declination
-1° 13' 29"
Sunlit
Object is in daylight
Visualization observer readout
Local Sidereal Time
17:58:51
Azimuth
5.89° NNE
Elevation
-51.163°
Doppler factor
1
Orbital elements
Apogee altitude
34,002.512 km
Perigee altitude
33,624.59 km
Semi-major axis
40,191.688 km
Eccentricity
0.0047
Inclination
7.5142°
RAAN
49.4141°
Arg. of periapsis
54.5506°
True anomaly
Unknown
Mean anomaly
305.8572°
Eccentric anomaly
Unknown
Mean motion
0.26936 °/min
Orbital period
1,336.48 mins
BSTAR
0
Loading historical data...
2653 neighbors
Loading maneuver chart data...
Loading SW <> Apogee altitude chart data...
Loading historical data...
Loading historical data...
Loading historical data...
Loading historical data...
Loading historical data...
Loading historical data...
Loading historical data...

OPS 9326 (IDSCS 13) Visibility

Observer location: undefined°, undefined°

OPS 9326 (IDSCS 13) is likely not visible in the next few days
Span
Click to sort rows by Start time (UTC) header in descending order
Start Az.
Max El. time (UTC)
Max El. Az.
Max El.
End time (UTC)
End Az.
|